| time (UTC) | temp F | wind direction | speed MPH | gust MPH | rain 1hr in | rain 24hr in | rain mn in | humidity % | barometer mb |
| 20260507053907 | 45 | 263 | 0.0 | 0.0 | 0.00 | 0.00 | 0.00 | 95 | 1017.6 |
| 20260507053405 | 45 | 263 | 0.0 | 0.0 | 0.00 | 0.00 | 0.00 | 95 | 1017.6 |
| 20260507052904 | 45 | 263 | 0.0 | 0.0 | 0.00 | 0.00 | 0.00 | 95 | 1017.5 |
| 20260507052400 | 45 | 263 | 0.0 | 0.0 | 0.00 | 0.00 | 0.00 | 95 | 1017.7 |
| 20260507051857 | 45 | 263 | 0.0 | 0.0 | 0.00 | 0.00 | 0.00 | 95 | 1017.4 |
| 20260507051355 | 45 | 263 | 0.0 | 0.0 | 0.00 | 0.00 | 0.00 | 95 | 1017.8 |
| 20260507050851 | 45 | 263 | 0.0 | 0.0 | 0.00 | 0.00 | 0.00 | 95 | 1017.6 |
| 20260507050348 | 45 | 263 | 0.0 | 0.0 | 0.00 | 0.00 | 0.00 | 95 | 1017.5 |
| 20260507045845 | 45 | 263 | 0.0 | 0.0 | 0.00 | 0.03 | 0.03 | 95 | 1017.5 |
| 20260507045341 | 45 | 263 | 0.0 | 0.0 | 0.00 | 0.03 | 0.03 | 95 | 1017.7 |
| 20260507044839 | 46 | 263 | 0.0 | 0.0 | 0.00 | 0.03 | 0.03 | 95 | 1017.6 |
| 20260507044335 | 46 | 263 | 0.0 | 0.0 | 0.00 | 0.03 | 0.03 | 94 | 1017.6 |
| 20260507043831 | 46 | 263 | 0.0 | 0.0 | 0.00 | 0.03 | 0.03 | 94 | 1017.7 |
| 20260507043328 | 46 | 263 | 0.0 | 0.0 | 0.00 | 0.03 | 0.03 | 94 | 1017.7 |
| 20260507042824 | 46 | 263 | 0.0 | 0.0 | 0.00 | 0.03 | 0.03 | 94 | 1017.5 |
| 20260507042320 | 46 | 263 | 0.0 | 0.0 | 0.00 | 0.03 | 0.03 | 94 | 1017.8 |
| 20260507041817 | 46 | 263 | 0.0 | 0.0 | 0.00 | 0.03 | 0.03 | 94 | 1017.6 |
| 20260507041313 | 46 | 263 | 0.0 | 0.0 | 0.00 | 0.03 | 0.03 | 93 | 1017.5 |
| 20260507040811 | 46 | 263 | 0.0 | 0.0 | 0.00 | 0.03 | 0.03 | 93 | 1017.5 |
| 20260507040307 | 46 | 263 | 0.0 | 0.0 | 0.00 | 0.03 | 0.03 | 93 | 1017.3 |
| 20260507035803 | 47 | 263 | 0.0 | 0.0 | 0.00 | 0.03 | 0.03 | 93 | 1017.5 |
| 20260507035258 | 46 | 263 | 0.0 | 0.0 | 0.00 | 0.03 | 0.03 | 92 | 1017.3 |
| 20260507034756 | 47 | 263 | 0.0 | 0.0 | 0.00 | 0.03 | 0.03 | 92 | 1017.3 |
| 20260507034253 | 47 | 263 | 0.0 | 1.0 | 0.00 | 0.03 | 0.03 | 92 | 1017.4 |
| 20260507033751 | 47 | 263 | 0.0 | 0.0 | 0.00 | 0.03 | 0.03 | 92 | 1017.1 |
| 20260507033248 | 48 | 263 | 0.0 | 0.0 | 0.00 | 0.03 | 0.03 | 91 | 1017.3 |
| 20260507032745 | 48 | 263 | 0.0 | 0.0 | 0.00 | 0.03 | 0.03 | 91 | 1017.3 |
| 20260507032241 | 48 | 263 | 0.0 | 0.0 | 0.00 | 0.03 | 0.03 | 90 | 1017.4 |
| 20260507031738 | 48 | 263 | 0.0 | 0.0 | 0.00 | 0.03 | 0.03 | 90 | 1017.1 |
| 20260507031235 | 48 | 263 | 0.0 | 0.0 | 0.00 | 0.03 | 0.03 | 90 | 1017.2 |
| 20260507030732 | 48 | 263 | 0.0 | 0.0 | 0.00 | 0.03 | 0.03 | 89 | 1017.2 |
| 20260507030229 | 48 | 263 | 0.0 | 0.0 | 0.00 | 0.03 | 0.03 | 88 | 1017.2 |
| 20260507025726 | 48 | 263 | 0.0 | 0.0 | 0.00 | 0.03 | 0.03 | 88 | 1017.2 |
| 20260507025223 | 48 | 263 | 0.0 | 0.0 | 0.00 | 0.03 | 0.03 | 87 | 1017.0 |
| 20260507024721 | 49 | 263 | 0.0 | 0.0 | 0.00 | 0.03 | 0.03 | 87 | 1017.2 |
| 20260507024218 | 49 | 263 | 0.0 | 0.0 | 0.00 | 0.03 | 0.03 | 86 | 1017.1 |
| 20260507023714 | 49 | 263 | 0.0 | 0.0 | 0.00 | 0.03 | 0.03 | 85 | 1017.1 |
| 20260507023211 | 49 | 263 | 0.0 | 0.0 | 0.00 | 0.03 | 0.03 | 85 | 1016.9 |
| 20260507022708 | 49 | 263 | 0.0 | 0.0 | 0.00 | 0.03 | 0.03 | 83 | 1016.9 |
| 20260507022204 | 50 | 263 | 0.0 | 1.0 | 0.00 | 0.03 | 0.03 | 83 | 1016.9 |
| 20260507021701 | 50 | 263 | 0.0 | 0.0 | 0.00 | 0.03 | 0.03 | 81 | 1016.9 |
| 20260507021155 | 50 | 263 | 0.0 | 0.0 | 0.00 | 0.03 | 0.03 | 81 | 1016.8 |
| 20260507020655 | 50 | 263 | 0.0 | 1.0 | 0.00 | 0.03 | 0.03 | 80 | 1016.6 |
| 20260507020150 | 51 | 263 | 0.0 | 0.0 | 0.00 | 0.03 | 0.03 | 79 | 1016.7 |
| 20260507015649 | 51 | 263 | 0.0 | 0.0 | 0.00 | 0.03 | 0.03 | 77 | 1016.5 |
| 20260507015145 | 51 | 263 | 0.0 | 0.0 | 0.00 | 0.03 | 0.03 | 75 | 1016.3 |
| 20260507014642 | 51 | 263 | 0.0 | 0.0 | 0.00 | 0.03 | 0.03 | 73 | 1016.5 |
| 20260507014138 | 51 | 263 | 0.0 | 0.0 | 0.00 | 0.03 | 0.03 | 72 | 1016.4 |
| 20260507013635 | 52 | 263 | 0.0 | 0.0 | 0.00 | 0.03 | 0.03 | 73 | 1016.3 |
| 20260507013132 | 52 | 263 | 0.0 | 1.0 | 0.00 | 0.03 | 0.03 | 73 | 1016.4 |
| 20260507012629 | 53 | 263 | 0.0 | 1.0 | 0.00 | 0.03 | 0.03 | 73 | 1016.3 |
| 20260507012125 | 53 | 263 | 0.0 | 1.0 | 0.00 | 0.03 | 0.03 | 71 | 1016.2 |
| 20260507011623 | 54 | 263 | 0.0 | 1.0 | 0.00 | 0.03 | 0.03 | 70 | 1016.1 |
| 20260507011119 | 54 | 251 | 0.0 | 0.0 | 0.00 | 0.03 | 0.03 | 68 | 1016.1 |
| 20260507010614 | 55 | 245 | 0.0 | 1.0 | 0.00 | 0.03 | 0.03 | 67 | 1015.8 |
| 20260507010110 | 55 | 220 | 0.0 | 1.0 | 0.00 | 0.03 | 0.03 | 65 | 1016.0 |
| 20260507005608 | 56 | 161 | 1.0 | 1.0 | 0.00 | 0.03 | 0.03 | 64 | 1016.0 |
| 20260507005104 | 57 | 161 | 0.0 | 1.0 | 0.00 | 0.03 | 0.03 | 63 | 1015.7 |
| 20260507004601 | 58 | 160 | 0.0 | 0.0 | 0.00 | 0.03 | 0.03 | 61 | 1015.9 |
| 20260507004058 | 59 | 159 | 0.0 | 0.0 | 0.00 | 0.03 | 0.03 | 56 | 1015.8 |
| 20260507003554 | 59 | 353 | 0.0 | 0.0 | 0.00 | 0.03 | 0.03 | 54 | 1015.9 |
| 20260507003049 | 59 | 353 | 0.0 | 1.0 | 0.00 | 0.03 | 0.03 | 52 | 1015.8 |
| 20260507002546 | 60 | 353 | 0.0 | 1.0 | 0.00 | 0.03 | 0.03 | 52 | 1015.8 |
| 20260507002042 | 60 | 353 | 0.0 | 1.0 | 0.00 | 0.03 | 0.03 | 52 | 1015.8 |
| 20260507001539 | 60 | 353 | 0.0 | 1.0 | 0.00 | 0.03 | 0.03 | 53 | 1015.7 |
| 20260507001036 | 60 | 351 | 0.0 | 1.0 | 0.00 | 0.03 | 0.03 | 52 | 1015.7 |
| 20260507000532 | 60 | 331 | 0.0 | 1.0 | 0.00 | 0.03 | 0.03 | 52 | 1015.6 |
| 20260507000028 | 60 | 358 | 0.0 | 1.0 | 0.00 | 0.03 | 0.03 | 50 | 1015.5 |
| 20260506235526 | 60 | 9 | 0.0 | 3.0 | 0.00 | 0.03 | 0.03 | 50 | 1015.4 |
| 20260506235021 | 60 | 24 | 0.0 | 2.0 | 0.00 | 0.03 | 0.03 | 50 | 1015.5 |
| 20260506234519 | 60 | 323 | 0.0 | 5.0 | 0.00 | 0.03 | 0.03 | 52 | 1015.3 |
| 20260506234016 | 60 | 308 | 0.0 | 1.0 | 0.00 | 0.03 | 0.03 | 50 | 1015.4 |
| 20260506233512 | 60 | 39 | 2.0 | 3.0 | 0.00 | 0.03 | 0.03 | 48 | 1015.3 |
| 20260506233009 | 61 | 28 | 2.0 | 3.0 | 0.00 | 0.03 | 0.03 | 50 | 1015.1 |
| 20260506232505 | 62 | 30 | 0.0 | 5.0 | 0.00 | 0.03 | 0.03 | 47 | 1015.2 |
| 20260506232001 | 63 | 29 | 0.0 | 1.0 | 0.00 | 0.03 | 0.03 | 48 | 1015.1 |
| 20260506231459 | 63 | 15 | 1.0 | 2.0 | 0.00 | 0.03 | 0.03 | 48 | 1015.1 |
| 20260506230956 | 63 | 25 | 1.0 | 5.0 | 0.00 | 0.03 | 0.03 | 46 | 1014.7 |
| 20260506230452 | 63 | 37 | 0.0 | 2.0 | 0.00 | 0.03 | 0.03 | 51 | 1015.0 |
| 20260506225949 | 62 | 9 | 1.0 | 6.0 | 0.00 | 0.03 | 0.03 | 47 | 1015.2 |
| 20260506225446 | 62 | 40 | 3.0 | 6.0 | 0.00 | 0.03 | 0.03 | 46 | 1015.1 |
| 20260506224943 | 63 | 19 | 3.0 | 6.0 | 0.00 | 0.03 | 0.03 | 46 | 1015.0 |
| 20260506224440 | 64 | 18 | 2.0 | 5.0 | 0.00 | 0.03 | 0.03 | 45 | 1014.9 |
| 20260506223936 | 64 | 17 | 1.0 | 3.0 | 0.00 | 0.03 | 0.03 | 47 | 1014.7 |
| 20260506223432 | 64 | 25 | 1.0 | 2.0 | 0.00 | 0.03 | 0.03 | 50 | 1014.6 |
| 20260506222930 | 64 | 25 | 0.0 | 1.0 | 0.00 | 0.03 | 0.03 | 48 | 1014.9 |
| 20260506222426 | 64 | 21 | 2.0 | 7.0 | 0.00 | 0.03 | 0.03 | 45 | 1014.8 |
| 20260506221923 | 64 | 23 | 0.0 | 5.0 | 0.00 | 0.03 | 0.03 | 45 | 1014.9 |
| 20260506221420 | 64 | 24 | 1.0 | 2.0 | 0.00 | 0.03 | 0.03 | 46 | 1014.8 |
| 20260506220918 | 64 | 2 | 2.0 | 3.0 | 0.00 | 0.03 | 0.03 | 48 | 1014.9 |
| 20260506220413 | 65 | 5 | 2.0 | 2.0 | 0.00 | 0.03 | 0.03 | 45 | 1015.0 |
| 20260506215910 | 63 | 50 | 0.0 | 2.0 | 0.00 | 0.03 | 0.03 | 49 | 1015.0 |
| 20260506215406 | 63 | 21 | 1.0 | 3.0 | 0.00 | 0.03 | 0.03 | 47 | 1015.1 |
| 20260506214902 | 62 | 75 | 0.0 | 1.0 | 0.00 | 0.03 | 0.03 | 52 | 1015.2 |
| 20260506214359 | 62 | 64 | 0.0 | 5.0 | 0.00 | 0.03 | 0.03 | 47 | 1015.3 |
| 20260506213857 | 61 | 20 | 3.0 | 5.0 | 0.00 | 0.03 | 0.03 | 45 | 1015.3 |
| 20260506213354 | 61 | 38 | 2.0 | 3.0 | 0.00 | 0.03 | 0.03 | 48 | 1015.3 |
| 20260506212851 | 62 | 354 | 2.0 | 2.0 | 0.00 | 0.03 | 0.03 | 50 | 1015.3 |
| 20260506212347 | 61 | 49 | 0.0 | 3.0 | 0.00 | 0.03 | 0.03 | 50 | 1015.1 |
| 20260506211842 | 62 | 35 | 6.0 | 7.0 | 0.00 | 0.03 | 0.03 | 47 | 1015.4 |
| 20260506211338 | 62 | 44 | 3.0 | 3.0 | 0.00 | 0.03 | 0.03 | 48 | 1015.3 |
| 20260506210836 | 62 | 100 | 0.0 | 2.0 | 0.00 | 0.03 | 0.03 | 51 | 1015.1 |
| 20260506210333 | 62 | 99 | 1.0 | 2.0 | 0.00 | 0.03 | 0.03 | 49 | 1015.2 |
| 20260506205830 | 63 | 144 | 0.0 | 2.0 | 0.00 | 0.03 | 0.03 | 50 | 1015.5 |
| 20260506205326 | 62 | 36 | 2.0 | 2.0 | 0.00 | 0.03 | 0.03 | 47 | 1015.3 |
| 20260506204822 | 64 | 347 | 1.0 | 3.0 | 0.00 | 0.03 | 0.03 | 49 | 1015.1 |
| 20260506204320 | 64 | 39 | 3.0 | 5.0 | 0.00 | 0.03 | 0.03 | 46 | 1015.3 |
| 20260506203818 | 64 | 334 | 1.0 | 2.0 | 0.00 | 0.03 | 0.03 | 48 | 1015.5 |
| 20260506203315 | 64 | 75 | 1.0 | 3.0 | 0.00 | 0.03 | 0.03 | 47 | 1015.6 |
| 20260506202811 | 64 | 152 | 2.0 | 5.0 | 0.00 | 0.03 | 0.03 | 48 | 1015.6 |
| 20260506202308 | 64 | 336 | 1.0 | 5.0 | 0.00 | 0.03 | 0.03 | 47 | 1015.6 |
| 20260506201805 | 63 | 297 | 0.0 | 2.0 | 0.00 | 0.03 | 0.03 | 47 | 1015.9 |
| 20260506201302 | 63 | 45 | 1.0 | 2.0 | 0.00 | 0.03 | 0.03 | 46 | 1015.7 |
| 20260506200759 | 64 | 45 | 1.0 | 8.0 | 0.00 | 0.03 | 0.03 | 44 | 1015.7 |
| 20260506200255 | 64 | 7 | 3.0 | 3.0 | 0.00 | 0.03 | 0.03 | 45 | 1015.8 |
| 20260506195751 | 64 | 16 | 1.0 | 2.0 | 0.00 | 0.03 | 0.03 | 45 | 1015.9 |
| 20260506195248 | 62 | 32 | 1.0 | 3.0 | 0.00 | 0.03 | 0.03 | 44 | 1015.9 |
| 20260506194746 | 64 | 46 | 2.0 | 3.0 | 0.00 | 0.03 | 0.03 | 48 | 1015.5 |
| 20260506194242 | 64 | 24 | 2.0 | 2.0 | 0.00 | 0.03 | 0.03 | 49 | 1015.6 |
| 20260506193740 | 64 | 11 | 2.0 | 5.0 | 0.00 | 0.03 | 0.03 | 47 | 1016.1 |
| 20260506193236 | 64 | 34 | 0.0 | 1.0 | 0.00 | 0.03 | 0.03 | 54 | 1015.9 |
| 20260506192733 | 64 | 37 | 0.0 | 1.0 | 0.00 | 0.03 | 0.03 | 49 | 1016.1 |
| 20260506192230 | 62 | 43 | 3.0 | 3.0 | 0.00 | 0.03 | 0.03 | 47 | 1016.4 |
| 20260506191726 | 62 | 104 | 2.0 | 3.0 | 0.00 | 0.03 | 0.03 | 48 | 1016.4 |
| 20260506191223 | 63 | 64 | 1.0 | 3.0 | 0.00 | 0.03 | 0.03 | 50 | 1016.4 |
| 20260506190720 | 63 | 24 | 3.0 | 5.0 | 0.00 | 0.03 | 0.03 | 48 | 1016.5 |
| 20260506190216 | 63 | 61 | 1.0 | 2.0 | 0.00 | 0.03 | 0.03 | 49 | 1016.5 |
| 20260506185714 | 62 | 61 | 0.0 | 1.0 | 0.00 | 0.03 | 0.03 | 50 | 1016.4 |
| 20260506185210 | 63 | 37 | 0.0 | 2.0 | 0.00 | 0.03 | 0.03 | 52 | 1016.4 |
| 20260506184708 | 62 | 18 | 0.0 | 2.0 | 0.00 | 0.03 | 0.03 | 52 | 1016.4 |
| 20260506184204 | 62 | 43 | 0.0 | 3.0 | 0.00 | 0.03 | 0.03 | 48 | 1016.5 |
| 20260506183701 | 62 | 28 | 1.0 | 3.0 | 0.00 | 0.03 | 0.03 | 49 | 1016.6 |
| 20260506183157 | 62 | 58 | 1.0 | 7.0 | 0.00 | 0.03 | 0.03 | 49 | 1016.7 |
| 20260506182655 | 62 | 41 | 1.0 | 5.0 | 0.00 | 0.03 | 0.03 | 49 | 1016.9 |
| 20260506182151 | 61 | 30 | 1.0 | 3.0 | 0.00 | 0.03 | 0.03 | 47 | 1016.8 |
| 20260506181644 | 61 | 54 | 2.0 | 3.0 | 0.00 | 0.03 | 0.03 | 49 | 1016.8 |
| 20260506181141 | 62 | 48 | 0.0 | 1.0 | 0.00 | 0.03 | 0.03 | 51 | 1016.9 |
| 20260506180637 | 62 | 19 | 1.0 | 2.0 | 0.00 | 0.03 | 0.03 | 51 | 1017.2 |
| 20260506180134 | 60 | 7 | 3.0 | 5.0 | 0.00 | 0.03 | 0.03 | 52 | 1017.0 |
| 20260506175630 | 61 | 17 | 2.0 | 3.0 | 0.00 | 0.03 | 0.03 | 48 | 1017.4 |
| 20260506175126 | 60 | 71 | 1.0 | 5.0 | 0.00 | 0.03 | 0.03 | 51 | 1017.4 |
| 20260506174625 | 61 | 64 | 1.0 | 2.0 | 0.00 | 0.03 | 0.03 | 51 | 1017.4 |
| 20260506174121 | 61 | 33 | 3.0 | 5.0 | 0.00 | 0.03 | 0.03 | 49 | 1017.4 |
| 20260506173619 | 61 | 62 | 0.0 | 1.0 | 0.00 | 0.03 | 0.03 | 52 | 1017.4 |
| 20260506173116 | 61 | 83 | 1.0 | 2.0 | 0.00 | 0.03 | 0.03 | 54 | 1017.5 |
| 20260506172613 | 60 | 69 | 1.0 | 7.0 | 0.00 | 0.03 | 0.03 | 50 | 1017.6 |
| 20260506172109 | 60 | 52 | 2.0 | 2.0 | 0.00 | 0.03 | 0.03 | 52 | 1017.6 |
| 20260506171607 | 59 | 40 | 0.0 | 2.0 | 0.00 | 0.03 | 0.03 | 55 | 1017.5 |
| 20260506171104 | 59 | 279 | 1.0 | 5.0 | 0.00 | 0.03 | 0.03 | 54 | 1017.3 |
| 20260506170601 | 59 | 77 | 1.0 | 3.0 | 0.00 | 0.03 | 0.03 | 55 | 1017.5 |
| 20260506170059 | 59 | 56 | 1.0 | 2.0 | 0.00 | 0.03 | 0.03 | 54 | 1017.7 |
| 20260506165557 | 58 | 51 | 1.0 | 3.0 | 0.00 | 0.03 | 0.03 | 55 | 1017.6 |
| 20260506165053 | 58 | 14 | 0.0 | 2.0 | 0.00 | 0.03 | 0.03 | 56 | 1017.4 |
| 20260506164551 | 57 | 37 | 0.0 | 3.0 | 0.00 | 0.03 | 0.03 | 59 | 1017.7 |
| 20260506164048 | 57 | 44 | 1.0 | 2.0 | 0.00 | 0.03 | 0.03 | 58 | 1017.7 |
| 20260506163543 | 57 | 38 | 2.0 | 3.0 | 0.00 | 0.03 | 0.03 | 58 | 1017.4 |
| 20260506163039 | 57 | 20 | 2.0 | 6.0 | 0.00 | 0.03 | 0.03 | 55 | 1017.3 |
| 20260506162536 | 57 | 61 | 0.0 | 3.0 | 0.00 | 0.03 | 0.03 | 57 | 1017.0 |
| 20260506162033 | 56 | 138 | 0.0 | 2.0 | 0.00 | 0.03 | 0.03 | 64 | 1017.1 |
| 20260506161531 | 56 | 111 | 0.0 | 1.0 | 0.00 | 0.03 | 0.03 | 62 | 1016.8 |
| 20260506161027 | 56 | 81 | 2.0 | 3.0 | 0.00 | 0.03 | 0.03 | 61 | 1016.5 |
| 20260506160525 | 56 | 53 | 1.0 | 2.0 | 0.00 | 0.03 | 0.03 | 64 | 1016.2 |
| 20260506160022 | 57 | 309 | 0.0 | 1.0 | 0.00 | 0.03 | 0.03 | 66 | 1016.4 |
| 20260506155521 | 55 | 334 | 1.0 | 2.0 | 0.00 | 0.03 | 0.03 | 63 | 1016.4 |
| 20260506153657 | 54 | 295 | 0.0 | 7.0 | 0.00 | 0.03 | 0.03 | 68 | 1016.4 |
| 20260506153155 | 54 | 355 | 2.0 | 3.0 | 0.00 | 0.03 | 0.03 | 69 | 1016.4 |
| 20260506152652 | 53 | 37 | 3.0 | 3.0 | 0.00 | 0.03 | 0.03 | 69 | 1016.4 |
| 20260506152149 | 53 | 50 | 0.0 | 2.0 | 0.00 | 0.03 | 0.03 | 71 | 1016.5 |
| 20260506151648 | 53 | 342 | 1.0 | 2.0 | 0.00 | 0.03 | 0.03 | 73 | 1016.3 |
| 20260506151144 | 52 | 60 | 0.0 | 6.0 | 0.00 | 0.03 | 0.03 | 70 | 1016.6 |
| 20260506150641 | 53 | 12 | 3.0 | 3.0 | 0.00 | 0.03 | 0.03 | 72 | 1016.5 |
| 20260506150138 | 52 | 129 | 1.0 | 1.0 | 0.00 | 0.03 | 0.03 | 74 | 1016.5 |
| 20260506145635 | 52 | 126 | 0.0 | 1.0 | 0.00 | 0.03 | 0.03 | 77 | 1016.7 |
| 20260506145131 | 52 | 26 | 1.0 | 2.0 | 0.00 | 0.03 | 0.03 | 76 | 1016.4 |
| 20260506144629 | 52 | 83 | 0.0 | 1.0 | 0.00 | 0.03 | 0.03 | 78 | 1016.1 |
| 20260506144125 | 51 | 111 | 1.0 | 1.0 | 0.00 | 0.03 | 0.03 | 79 | 1015.9 |
| 20260506143624 | 51 | 64 | 1.0 | 2.0 | 0.00 | 0.03 | 0.03 | 79 | 1016.0 |
| 20260506143121 | 51 | 16 | 3.0 | 3.0 | 0.00 | 0.03 | 0.03 | 79 | 1016.0 |
| 20260506142620 | 50 | 351 | 2.0 | 5.0 | 0.00 | 0.03 | 0.03 | 81 | 1016.1 |
| 20260506142117 | 50 | 63 | 0.0 | 1.0 | 0.00 | 0.03 | 0.03 | 83 | 1015.9 |
| 20260506141614 | 49 | 17 | 2.0 | 2.0 | 0.00 | 0.03 | 0.03 | 83 | 1016.1 |
| 20260506141113 | 49 | 88 | 0.0 | 1.0 | 0.00 | 0.03 | 0.03 | 85 | 1016.1 |
| 20260506140610 | 49 | 160 | 0.0 | 1.0 | 0.00 | 0.03 | 0.03 | 85 | 1016.4 |
| 20260506140107 | 49 | 156 | 0.0 | 1.0 | 0.00 | 0.03 | 0.03 | 85 | 1016.4 |
| 20260506135604 | 49 | 160 | 0.0 | 1.0 | 0.00 | 0.03 | 0.03 | 86 | 1016.5 |
| 20260506135100 | 48 | 160 | 0.0 | 1.0 | 0.00 | 0.03 | 0.03 | 86 | 1016.6 |
| 20260506134557 | 48 | 88 | 2.0 | 2.0 | 0.00 | 0.03 | 0.03 | 86 | 1016.7 |
| 20260506134052 | 48 | 141 | 1.0 | 1.0 | 0.00 | 0.03 | 0.03 | 86 | 1016.5 |
| 20260506133550 | 48 | 173 | 1.0 | 2.0 | 0.00 | 0.03 | 0.03 | 87 | 1016.5 |
| 20260506133047 | 48 | 159 | 2.0 | 2.0 | 0.00 | 0.03 | 0.03 | 87 | 1016.2 |
| 20260506132544 | 47 | 90 | 0.0 | 1.0 | 0.00 | 0.03 | 0.03 | 88 | 1016.0 |
| 20260506132041 | 47 | 89 | 0.0 | 1.0 | 0.00 | 0.03 | 0.03 | 88 | 1016.2 |
| 20260506131538 | 47 | 176 | 0.0 | 1.0 | 0.00 | 0.03 | 0.03 | 89 | 1016.1 |
| 20260506131034 | 47 | 119 | 1.0 | 2.0 | 0.00 | 0.03 | 0.03 | 90 | 1016.0 |
| 20260506130532 | 46 | 157 | 0.0 | 3.0 | 0.00 | 0.03 | 0.03 | 90 | 1016.0 |
| 20260506130029 | 47 | 142 | 0.0 | 1.0 | 0.00 | 0.03 | 0.03 | 91 | 1016.0 |
| 20260506125527 | 46 | 109 | 1.0 | 1.0 | 0.00 | 0.03 | 0.03 | 92 | 1016.0 |
| 20260506125025 | 47 | 163 | 1.0 | 1.0 | 0.00 | 0.03 | 0.03 | 92 | 1015.9 |
| 20260506124522 | 47 | 163 | 0.0 | 0.0 | 0.00 | 0.03 | 0.03 | 93 | 1015.8 |
| 20260506124020 | 46 | 163 | 0.0 | 1.0 | 0.00 | 0.03 | 0.03 | 93 | 1016.1 |
| 20260506123518 | 47 | 227 | 0.0 | 0.0 | 0.00 | 0.03 | 0.03 | 94 | 1015.9 |
| 20260506123016 | 46 | 216 | 0.0 | 0.0 | 0.00 | 0.03 | 0.03 | 94 | 1015.9 |
| 20260506122512 | 47 | 259 | 0.0 | 1.0 | 0.00 | 0.03 | 0.03 | 94 | 1015.9 |
| 20260506122010 | 46 | 317 | 1.0 | 1.0 | 0.00 | 0.03 | 0.03 | 95 | 1015.9 |
| 20260506121507 | 46 | 14 | 1.0 | 3.0 | 0.00 | 0.03 | 0.03 | 95 | 1016.0 |
| 20260506121004 | 46 | 349 | 0.0 | 1.0 | 0.00 | 0.03 | 0.03 | 95 | 1015.9 |
| 20260506120502 | 46 | 16 | 1.0 | 1.0 | 0.00 | 0.03 | 0.03 | 95 | 1016.2 |
| 20260506115958 | 46 | 297 | 0.0 | 1.0 | 0.00 | 0.03 | 0.03 | 96 | 1016.0 |
| 20260506115456 | 46 | 291 | 0.0 | 2.0 | 0.00 | 0.03 | 0.03 | 96 | 1016.3 |
| 20260506114954 | 46 | 292 | 0.0 | 1.0 | 0.00 | 0.03 | 0.03 | 96 | 1015.9 |
| 20260506114452 | 46 | 296 | 0.0 | 1.0 | 0.00 | 0.03 | 0.03 | 96 | 1016.0 |
| 20260506113950 | 46 | 285 | 0.0 | 0.0 | 0.00 | 0.03 | 0.03 | 96 | 1015.9 |
| 20260506113448 | 46 | 285 | 0.0 | 1.0 | 0.00 | 0.03 | 0.03 | 96 | 1015.9 |
| 20260506112944 | 46 | 288 | 0.0 | 1.0 | 0.00 | 0.03 | 0.03 | 96 | 1015.8 |
| 20260506112442 | 46 | 294 | 0.0 | 0.0 | 0.00 | 0.03 | 0.03 | 96 | 1015.5 |
| 20260506111939 | 46 | 313 | 0.0 | 1.0 | 0.00 | 0.03 | 0.03 | 96 | 1015.4 |
| 20260506111437 | 46 | 0 | 1.0 | 2.0 | 0.00 | 0.03 | 0.03 | 96 | 1015.6 |
| 20260506110933 | 46 | 344 | 1.0 | 1.0 | 0.00 | 0.03 | 0.03 | 96 | 1015.4 |
| 20260506110432 | 46 | 344 | 0.0 | 2.0 | 0.00 | 0.03 | 0.03 | 96 | 1015.8 |
| 20260506105927 | 46 | 309 | 0.0 | 1.0 | 0.00 | 0.03 | 0.03 | 96 | 1015.5 |
| 20260506105424 | 46 | 295 | 0.0 | 0.0 | 0.00 | 0.03 | 0.03 | 96 | 1015.5 |
| 20260506104921 | 46 | 298 | 0.0 | 1.0 | 0.00 | 0.03 | 0.03 | 96 | 1015.2 |
| 20260506104419 | 46 | 344 | 2.0 | 2.0 | 0.00 | 0.03 | 0.03 | 96 | 1015.1 |
| 20260506103917 | 46 | 283 | 0.0 | 2.0 | 0.00 | 0.03 | 0.03 | 96 | 1015.3 |
| 20260506103414 | 46 | 304 | 0.0 | 2.0 | 0.00 | 0.03 | 0.03 | 96 | 1014.9 |
| 20260506102911 | 46 | 293 | 0.0 | 1.0 | 0.00 | 0.03 | 0.03 | 96 | 1014.9 |
| 20260506102409 | 46 | 300 | 0.0 | 1.0 | 0.00 | 0.03 | 0.03 | 95 | 1014.6 |
| 20260506101906 | 46 | 295 | 0.0 | 1.0 | 0.00 | 0.03 | 0.03 | 95 | 1014.5 |
| 20260506101402 | 46 | 327 | 1.0 | 1.0 | 0.00 | 0.03 | 0.03 | 95 | 1014.9 |
| 20260506100900 | 46 | 330 | 0.0 | 1.0 | 0.00 | 0.03 | 0.03 | 95 | 1014.4 |
| 20260506100358 | 46 | 288 | 0.0 | 1.0 | 0.00 | 0.03 | 0.03 | 95 | 1014.7 |
| 20260506095856 | 46 | 298 | 1.0 | 3.0 | 0.00 | 0.03 | 0.03 | 95 | 1014.4 |
| 20260506095354 | 46 | 308 | 0.0 | 1.0 | 0.00 | 0.03 | 0.03 | 95 | 1014.1 |
| 20260506094850 | 46 | 331 | 1.0 | 1.0 | 0.00 | 0.03 | 0.03 | 95 | 1014.1 |
| 20260506094349 | 46 | 304 | 0.0 | 1.0 | 0.00 | 0.03 | 0.03 | 95 | 1013.9 |
| 20260506093846 | 46 | 308 | 0.0 | 2.0 | 0.00 | 0.03 | 0.03 | 95 | 1014.1 |
| 20260506093344 | 46 | 291 | 0.0 | 1.0 | 0.00 | 0.03 | 0.03 | 95 | 1013.8 |
| 20260506092841 | 46 | 332 | 0.0 | 1.0 | 0.00 | 0.03 | 0.03 | 94 | 1014.0 |
| 20260506092339 | 46 | 330 | 0.0 | 1.0 | 0.00 | 0.03 | 0.03 | 94 | 1013.7 |
| 20260506091836 | 46 | 276 | 1.0 | 1.0 | 0.00 | 0.03 | 0.03 | 94 | 1013.7 |
| 20260506091333 | 46 | 288 | 0.0 | 1.0 | 0.00 | 0.03 | 0.03 | 94 | 1013.8 |
| 20260506090831 | 46 | 284 | 0.0 | 0.0 | 0.00 | 0.03 | 0.03 | 94 | 1013.8 |
| 20260506090328 | 46 | 282 | 0.0 | 1.0 | 0.00 | 0.03 | 0.03 | 94 | 1013.7 |
| 20260506085824 | 46 | 283 | 0.0 | 1.0 | 0.00 | 0.03 | 0.03 | 93 | 1013.9 |
| 20260506085321 | 46 | 321 | 0.0 | 1.0 | 0.00 | 0.03 | 0.03 | 93 | 1013.6 |
| 20260506084818 | 46 | 286 | 1.0 | 2.0 | 0.00 | 0.03 | 0.03 | 93 | 1013.2 |
| 20260506084314 | 46 | 308 | 0.0 | 1.0 | 0.00 | 0.03 | 0.03 | 92 | 1012.8 |
| 20260506083811 | 46 | 11 | 0.0 | 2.0 | 0.05 | 0.03 | 0.03 | 92 | 1012.8 |
| 20260506083308 | 46 | 300 | 1.0 | 1.0 | 0.12 | 0.03 | 0.03 | 91 | 1012.5 |
| 20260506082806 | 47 | 321 | 1.0 | 2.0 | 0.07 | 0.01 | 0.01 | 91 | 1012.4 |
| 20260506082304 | 47 | 3 | 1.0 | 2.0 | 0.00 | 0.00 | 0.00 | 91 | 1012.8 |
| 20260506081759 | 47 | 327 | 1.0 | 1.0 | 0.00 | 0.00 | 0.00 | 91 | 1012.5 |
| 20260506081256 | 47 | 331 | 0.0 | 1.0 | 0.00 | 0.00 | 0.00 | 91 | 1013.0 |
| 20260506080754 | 47 | 308 | 0.0 | 0.0 | 0.00 | 0.00 | 0.00 | 91 | 1012.4 |
| 20260506080250 | 47 | 322 | 1.0 | 1.0 | 0.00 | 0.00 | 0.00 | 91 | 1012.2 |
| 20260506073234 | 46 | 300 | 0.0 | 2.0 | 0.00 | 0.00 | 0.00 | 90 | 1012.5 |
| 20260506072731 | 47 | 297 | 1.0 | 1.0 | 0.00 | 0.00 | 0.00 | 90 | 1012.0 |
| 20260506072229 | 47 | 332 | 0.0 | 1.0 | 0.00 | 0.00 | 0.00 | 90 | 1012.2 |
| 20260506071726 | 47 | 43 | 1.0 | 1.0 | 0.00 | 0.00 | 0.00 | 90 | 1011.7 |
| 20260506071224 | 46 | 340 | 2.0 | 2.0 | 0.00 | 0.00 | 0.00 | 90 | 1012.1 |
| 20260506070720 | 46 | 28 | 2.0 | 3.0 | 0.00 | 0.00 | 0.00 | 90 | 1012.1 |
| 20260506070218 | 46 | 41 | 0.0 | 2.0 | 0.00 | 0.00 | 0.00 | 89 | 1011.8 |
| 20260506062154 | 48 | 3 | 2.0 | 3.0 | 0.00 | 0.00 | 0.00 | 86 | 1013.0 |
| 20260506061650 | 47 | 311 | 0.0 | 2.0 | 0.00 | 0.00 | 0.00 | 86 | 1013.0 |
| 20260506061148 | 48 | 322 | 1.0 | 2.0 | 0.00 | 0.00 | 0.00 | 86 | 1013.0 |
| 20260506060647 | 48 | 302 | 0.0 | 1.0 | 0.00 | 0.00 | 0.00 | 86 | 1013.3 |
| 20260506060143 | 48 | 286 | 0.0 | 1.0 | 0.00 | 0.00 | 0.00 | 86 | 1012.8 |